Time,TemperatureF,DewpointF,PressureIn,WindDirection,WindDirectionDegrees,WindSpeedMPH,WindSpeedGustMPH,Humidity,HourlyPrecipIn,Conditions,Clouds,dailyrainin,SoftwareType,DateUTC
2013-02-23 00:10:00,34.3,33.0,30.25,ENE,78,0.0,2.0,95,0.00,,,0.00,weatherlink.com 1.10,2013-02-23 05:10:00,
2013-02-23 00:25:00,34.3,33.0,30.24,ENE,60,0.0,3.0,95,0.00,,,0.00,weatherlink.com 1.10,2013-02-23 05:25:00,
2013-02-23 00:40:00,34.3,33.0,30.23,ENE,68,1.0,3.0,95,0.00,,,0.00,weatherlink.com 1.10,2013-02-23 05:40:00,
2013-02-23 00:55:00,34.4,33.0,30.22,ENE,74,1.0,4.0,96,0.00,,,0.00,weatherlink.com 1.10,2013-02-23 05:55:00,
2013-02-23 01:10:00,34.6,34.0,30.21,NE,46,1.0,4.0,96,0.00,,,0.00,weatherlink.com 1.10,2013-02-23 06:10:00,
2013-02-23 01:25:00,34.5,34.0,30.21,NE,40,0.0,4.0,96,0.00,,,0.00,weatherlink.com 1.10,2013-02-23 06:25:00,
2013-02-23 01:40:00,34.4,33.0,30.20,NE,49,0.0,4.0,96,0.01,,,0.01,weatherlink.com 1.10,2013-02-23 06:40:00,
2013-02-23 01:55:00,34.3,33.0,30.19,NE,49,1.0,4.0,96,0.01,,,0.01,weatherlink.com 1.10,2013-02-23 06:55:00,
2013-02-23 02:10:00,34.3,33.0,30.18,NE,49,3.0,3.0,96,0.01,,,0.01,weatherlink.com 1.10,2013-02-23 07:10:00,
2013-02-23 02:25:00,34.3,34.0,30.19,NE,49,2.0,4.0,97,0.01,,,0.01,weatherlink.com 1.10,2013-02-23 07:25:00,
2013-02-23 02:40:00,34.6,34.0,30.18,ENE,60,4.0,5.0,97,0.01,,,0.02,weatherlink.com 1.10,2013-02-23 07:40:00,
2013-02-23 02:55:00,34.8,34.0,30.17,East,79,3.0,5.0,97,0.01,,,0.02,weatherlink.com 1.10,2013-02-23 07:55:00,
2013-02-23 03:10:00,35.0,34.0,30.15,ENE,65,5.0,7.0,97,0.01,,,0.02,weatherlink.com 1.10,2013-02-23 08:10:00,
2013-02-23 03:25:00,35.0,34.0,30.15,ENE,65,4.0,5.0,97,0.01,,,0.02,weatherlink.com 1.10,2013-02-23 08:25:00,
2013-02-23 03:40:00,35.1,34.0,30.14,ENE,67,3.0,7.0,97,0.00,,,0.02,weatherlink.com 1.10,2013-02-23 08:40:00,
2013-02-23 03:55:00,35.4,35.0,30.14,ENE,73,4.0,5.0,98,0.00,,,0.02,weatherlink.com 1.10,2013-02-23 08:55:00,
2013-02-23 04:10:00,35.6,35.0,30.14,East,80,2.0,5.0,98,0.00,,,0.02,weatherlink.com 1.10,2013-02-23 09:10:00,
2013-02-23 04:25:00,35.9,35.0,30.12,East,82,5.0,5.0,98,0.00,,,0.02,weatherlink.com 1.10,2013-02-23 09:25:00,
2013-02-23 04:40:00,36.2,36.0,30.12,East,88,2.0,6.0,98,0.00,,,0.02,weatherlink.com 1.10,2013-02-23 09:40:00,
2013-02-23 04:55:00,36.5,36.0,30.12,East,90,5.0,7.0,98,0.00,,,0.02,weatherlink.com 1.10,2013-02-23 09:55:00,
2013-02-23 05:11:00,36.7,36.0,30.12,East,97,5.0,6.0,98,0.00,,,0.02,weatherlink.com 1.10,2013-02-23 10:11:00,
2013-02-23 05:26:00,36.9,36.0,30.11,East,89,3.0,7.0,98,0.00,,,0.02,weatherlink.com 1.10,2013-02-23 10:26:00,
2013-02-23 05:41:00,37.0,37.0,30.10,East,88,5.0,8.0,98,0.00,,,0.02,weatherlink.com 1.10,2013-02-23 10:41:00,
2013-02-23 05:56:00,37.1,37.0,30.10,East,86,5.0,6.0,98,0.00,,,0.02,weatherlink.com 1.10,2013-02-23 10:56:00,
2013-02-23 06:11:00,37.3,37.0,30.10,East,82,2.0,5.0,98,0.00,,,0.02,weatherlink.com 1.10,2013-02-23 11:11:00,
2013-02-23 06:26:00,37.4,37.0,30.09,East,84,2.0,3.0,98,0.01,,,0.03,weatherlink.com 1.10,2013-02-23 11:26:00,
2013-02-23 06:41:00,37.4,37.0,30.09,East,83,3.0,5.0,98,0.01,,,0.03,weatherlink.com 1.10,2013-02-23 11:41:00,
2013-02-23 06:56:00,37.7,37.0,30.09,East,83,5.0,5.0,98,0.01,,,0.03,weatherlink.com 1.10,2013-02-23 11:56:00,
2013-02-23 07:11:00,37.9,37.0,30.08,ENE,74,3.0,5.0,98,0.01,,,0.03,weatherlink.com 1.10,2013-02-23 12:11:00,
2013-02-23 07:26:00,38.1,38.0,30.08,ENE,76,1.0,4.0,98,0.00,,,0.03,weatherlink.com 1.10,2013-02-23 12:26:00,
2013-02-23 07:41:00,38.4,38.0,30.07,ENE,76,1.0,4.0,98,0.00,,,0.03,weatherlink.com 1.10,2013-02-23 12:41:00,
2013-02-23 07:56:00,38.4,38.0,30.07,ENE,76,1.0,4.0,98,0.00,,,0.03,weatherlink.com 1.10,2013-02-23 12:56:00,
2013-02-23 08:11:00,38.8,38.0,30.07,East,85,2.0,7.0,98,0.00,,,0.03,weatherlink.com 1.10,2013-02-23 13:11:00,
2013-02-23 08:26:00,39.0,39.0,30.07,East,85,3.0,3.0,98,0.00,,,0.03,weatherlink.com 1.10,2013-02-23 13:26:00,
2013-02-23 08:41:00,39.3,39.0,30.07,East,85,1.0,3.0,99,0.01,,,0.00,weatherlink.com 1.10,2013-02-23 13:41:00,
2013-02-23 08:56:00,40.0,40.0,30.06,East,86,2.0,7.0,99,0.01,,,0.00,weatherlink.com 1.10,2013-02-23 13:56:00,
2013-02-23 09:11:00,40.6,40.0,30.03,East,92,2.0,9.0,99,0.01,,,0.00,weatherlink.com 1.10,2013-02-23 14:11:00,
2013-02-23 09:26:00,41.2,41.0,30.04,East,85,3.0,7.0,99,0.01,,,0.01,weatherlink.com 1.10,2013-02-23 14:26:00,
2013-02-23 09:41:00,41.4,41.0,30.03,East,85,0.0,5.0,99,0.01,,,0.01,weatherlink.com 1.10,2013-02-23 14:41:00,
2013-02-23 09:56:00,41.5,41.0,30.03,East,85,2.0,3.0,99,0.01,,,0.01,weatherlink.com 1.10,2013-02-23 14:56:00,
2013-02-23 10:11:00,41.9,42.0,30.03,East,85,3.0,3.0,99,0.02,,,0.02,weatherlink.com 1.10,2013-02-23 15:11:00,
2013-02-23 10:26:00,42.3,42.0,30.01,East,85,2.0,3.0,99,0.01,,,0.02,weatherlink.com 1.10,2013-02-23 15:26:00,
2013-02-23 10:41:00,42.5,42.0,30.00,ENE,73,3.0,8.0,99,0.01,,,0.02,weatherlink.com 1.10,2013-02-23 15:41:00,
2013-02-23 10:56:00,42.8,43.0,29.99,East,80,7.0,7.0,99,0.01,,,0.02,weatherlink.com 1.10,2013-02-23 15:56:00,
2013-02-23 11:11:00,42.7,43.0,29.98,ENE,76,5.0,7.0,99,0.01,,,0.03,weatherlink.com 1.10,2013-02-23 16:11:00,
2013-02-23 11:26:00,43.0,43.0,29.98,ENE,66,2.0,8.0,99,0.01,,,0.03,weatherlink.com 1.10,2013-02-23 16:26:00,
2013-02-23 11:41:00,43.3,43.0,29.97,ENE,73,5.0,8.0,99,0.01,,,0.03,weatherlink.com 1.10,2013-02-23 16:41:00,
2013-02-23 11:56:00,43.5,43.0,29.96,NE,50,3.0,8.0,99,0.01,,,0.03,weatherlink.com 1.10,2013-02-23 16:56:00,
2013-02-23 12:11:00,43.6,43.0,29.95,NNE,32,6.0,9.0,99,0.01,,,0.04,weatherlink.com 1.10,2013-02-23 17:11:00,
2013-02-23 12:27:00,43.8,44.0,29.94,NE,47,7.0,9.0,99,0.01,,,0.04,weatherlink.com 1.10,2013-02-23 17:27:00,
2013-02-23 12:42:00,43.9,44.0,29.93,NE,46,4.0,10.0,99,0.02,,,0.05,weatherlink.com 1.10,2013-02-23 17:42:00,
2013-02-23 12:57:00,44.1,44.0,29.92,NE,46,4.0,11.0,99,0.02,,,0.05,weatherlink.com 1.10,2013-02-23 17:57:00,
2013-02-23 13:12:00,44.3,44.0,29.91,NNE,31,3.0,9.0,99,0.01,,,0.05,weatherlink.com 1.10,2013-02-23 18:12:00,
2013-02-23 13:27:00,44.3,44.0,29.91,NE,41,4.0,11.0,99,0.02,,,0.06,weatherlink.com 1.10,2013-02-23 18:27:00,
2013-02-23 13:42:00,44.4,44.0,29.90,NE,47,5.0,10.0,99,0.01,,,0.06,weatherlink.com 1.10,2013-02-23 18:42:00,
2013-02-23 13:57:00,44.5,44.0,29.91,NE,42,4.0,7.0,99,0.01,,,0.06,weatherlink.com 1.10,2013-02-23 18:57:00,
2013-02-23 14:12:00,44.6,44.0,29.90,NE,38,6.0,6.0,99,0.01,,,0.06,weatherlink.com 1.10,2013-02-23 19:12:00,
2013-02-23 14:27:00,44.4,44.0,29.90,NNE,20,3.0,6.0,99,0.00,,,0.06,weatherlink.com 1.10,2013-02-23 19:27:00,
2013-02-23 14:42:00,44.2,44.0,29.89,NE,34,4.0,10.0,99,0.01,,,0.07,weatherlink.com 1.10,2013-02-23 19:42:00,
2013-02-23 14:57:00,44.4,44.0,29.89,NNE,20,8.0,9.0,99,0.02,,,0.08,weatherlink.com 1.10,2013-02-23 19:57:00,
2013-02-23 15:12:00,44.7,45.0,29.89,North,360,3.0,10.0,99,0.02,,,0.08,weatherlink.com 1.10,2013-02-23 20:12:00,
2013-02-23 15:27:00,44.9,45.0,29.88,NE,49,3.0,10.0,99,0.02,,,0.08,weatherlink.com 1.10,2013-02-23 20:27:00,
2013-02-23 15:42:00,45.2,45.0,29.88,NNE,15,4.0,11.0,99,0.01,,,0.08,weatherlink.com 1.10,2013-02-23 20:42:00,
2013-02-23 15:57:00,45.3,45.0,29.87,NNE,27,4.0,11.0,99,0.01,,,0.09,weatherlink.com 1.10,2013-02-23 20:57:00,
2013-02-23 16:12:00,45.4,45.0,29.87,NE,56,2.0,10.0,99,0.01,,,0.09,weatherlink.com 1.10,2013-02-23 21:12:00,
2013-02-23 16:27:00,45.4,45.0,29.86,NE,38,8.0,11.0,99,0.01,,,0.09,weatherlink.com 1.10,2013-02-23 21:27:00,
2013-02-23 16:42:00,45.5,45.0,29.85,ENE,65,5.0,10.0,99,0.01,,,0.09,weatherlink.com 1.10,2013-02-23 21:42:00,
2013-02-23 16:57:00,45.6,45.0,29.85,ENE,61,8.0,11.0,99,0.00,,,0.09,weatherlink.com 1.10,2013-02-23 21:57:00,
2013-02-23 17:12:00,45.6,45.0,29.84,NE,53,5.0,11.0,99,0.00,,,0.09,weatherlink.com 1.10,2013-02-23 22:12:00,
2013-02-23 17:27:00,45.8,46.0,29.84,NE,54,3.0,11.0,99,0.00,,,0.09,weatherlink.com 1.10,2013-02-23 22:27:00,
2013-02-23 17:42:00,45.8,46.0,29.84,NE,49,4.0,8.0,99,0.00,,,0.09,weatherlink.com 1.10,2013-02-23 22:42:00,
2013-02-23 17:57:00,45.8,46.0,29.85,NE,38,4.0,9.0,99,0.00,,,0.09,weatherlink.com 1.10,2013-02-23 22:57:00,
2013-02-23 18:12:00,45.8,46.0,29.84,NE,45,4.0,10.0,99,0.00,,,0.09,weatherlink.com 1.10,2013-02-23 23:12:00,
2013-02-23 18:27:00,45.8,46.0,29.84,NE,41,3.0,8.0,99,0.00,,,0.09,weatherlink.com 1.10,2013-02-23 23:27:00,
2013-02-23 18:42:00,45.8,46.0,29.84,NE,52,9.0,9.0,99,0.00,,,0.09,weatherlink.com 1.10,2013-02-23 23:42:00,
2013-02-23 18:57:00,45.9,46.0,29.84,NE,36,6.0,10.0,99,0.00,,,0.09,weatherlink.com 1.10,2013-02-23 23:57:00,
2013-02-23 19:12:00,45.7,46.0,29.84,NE,42,3.0,8.0,99,0.00,,,0.09,weatherlink.com 1.10,2013-02-24 00:12:00,
2013-02-23 19:27:00,45.5,45.0,29.83,NE,41,2.0,8.0,99,0.00,,,0.09,weatherlink.com 1.10,2013-02-24 00:27:00,
2013-02-23 19:42:00,45.4,45.0,29.83,NE,45,4.0,6.0,99,0.00,,,0.09,weatherlink.com 1.10,2013-02-24 00:42:00,
2013-02-23 19:57:00,45.3,45.0,29.84,NNE,21,2.0,6.0,99,0.00,,,0.09,weatherlink.com 1.10,2013-02-24 00:57:00,
2013-02-23 20:12:00,44.9,45.0,29.83,ENE,61,3.0,8.0,99,0.00,,,0.09,weatherlink.com 1.10,2013-02-24 01:12:00,
2013-02-23 20:27:00,44.6,44.0,29.82,North,350,5.0,11.0,99,0.00,,,0.09,weatherlink.com 1.10,2013-02-24 01:27:00,
2013-02-23 20:42:00,44.4,44.0,29.82,NNE,15,3.0,9.0,99,0.00,,,0.09,weatherlink.com 1.10,2013-02-24 01:42:00,
2013-02-23 20:57:00,44.1,44.0,29.82,NNE,19,7.0,11.0,99,0.00,,,0.09,weatherlink.com 1.10,2013-02-24 01:57:00,
2013-02-23 21:12:00,43.7,44.0,29.82,NNW,342,4.0,11.0,99,0.00,,,0.09,weatherlink.com 1.10,2013-02-24 02:12:00,
2013-02-23 21:27:00,43.4,43.0,29.82,NNE,27,6.0,11.0,99,0.00,,,0.09,weatherlink.com 1.10,2013-02-24 02:27:00,
2013-02-23 21:42:00,42.9,42.0,29.82,NNE,17,4.0,10.0,98,0.00,,,0.09,weatherlink.com 1.10,2013-02-24 02:42:00,
2013-02-23 21:57:00,42.5,42.0,29.81,NNE,31,6.0,12.0,98,0.00,,,0.09,weatherlink.com 1.10,2013-02-24 02:57:00,
2013-02-23 22:12:00,42.1,42.0,29.80,NE,48,6.0,10.0,98,0.00,,,0.09,weatherlink.com 1.10,2013-02-24 03:12:00,
2013-02-23 22:27:00,41.8,41.0,29.81,NNE,14,5.0,10.0,98,0.00,,,0.09,weatherlink.com 1.10,2013-02-24 03:27:00,
2013-02-23 22:42:00,41.4,41.0,29.80,NNE,19,7.0,10.0,98,0.00,,,0.09,weatherlink.com 1.10,2013-02-24 03:42:00,
2013-02-23 22:57:00,41.2,41.0,29.80,North,360,5.0,12.0,98,0.00,,,0.09,weatherlink.com 1.10,2013-02-24 03:57:00,
2013-02-23 23:13:00,41.0,41.0,29.80,NNE,13,6.0,13.0,98,0.00,,,0.09,weatherlink.com 1.10,2013-02-24 04:13:00,
2013-02-23 23:28:00,41.0,41.0,29.80,NE,49,5.0,11.0,98,0.00,,,0.09,weatherlink.com 1.10,2013-02-24 04:28:00,
2013-02-23 23:43:00,41.0,41.0,29.81,NE,40,2.0,7.0,98,0.00,,,0.09,weatherlink.com 1.10,2013-02-24 04:43:00,
2013-02-23 23:58:00,41.1,41.0,29.81,NE,46,4.0,7.0,98,0.00,,,0.09,weatherlink.com 1.10,2013-02-24 04:58:00,